SWA3018 KLAS-KPHX

Flight info

Callsign SWA3018
Flight time 0h 43m
Altitude 29000
Route RASLR3 ZAYNE WOTRO BRUSR1
Aircraft B738/M-SADE2E3GIJ4RWZ/LB1D1

Departure

Time 2026-04-30 19:02
Airport Harry Reid International Airport (KLAS)

Arrival

Time 2026-04-30 19:45
Airport Phoenix Sky Harbor International Airport (KPHX)
Time Latitude Longitude Altitude Speed Heading
2026-04-30 18:37 36.08480 -115.15448 2096 ft 0 kts 11°
2026-04-30 18:48 36.08466 -115.15452 2096 ft 4 kts
2026-04-30 18:48 36.08439 -115.15457 2097 ft 4 kts
2026-04-30 18:49 36.08412 -115.15459 2097 ft 4 kts 358°
2026-04-30 18:49 36.08387 -115.15454 2097 ft 4 kts 326°
2026-04-30 18:49 36.08377 -115.15441 2096 ft 1 kts 245°
2026-04-30 18:49 36.08379 -115.15436 2096 ft 0 kts 245°
2026-04-30 18:52 36.08374 -115.15450 2096 ft 3 kts 245°
2026-04-30 18:52 36.08358 -115.15493 2097 ft 7 kts 244°
2026-04-30 18:52 36.08326 -115.15559 2098 ft 10 kts 218°
2026-04-30 18:52 36.08261 -115.15559 2098 ft 10 kts 153°
2026-04-30 18:53 36.08185 -115.15511 2097 ft 14 kts 155°
2026-04-30 18:53 36.08175 -115.15506 2097 ft 0 kts 155°
2026-04-30 18:53 36.08174 -115.15505 2097 ft 1 kts 155°
2026-04-30 18:54 36.08158 -115.15496 2097 ft 5 kts 155°
2026-04-30 18:54 36.08116 -115.15472 2097 ft 9 kts 155°
2026-04-30 18:54 36.08047 -115.15431 2097 ft 13 kts 154°
2026-04-30 18:54 36.07955 -115.15377 2097 ft 16 kts 155°
2026-04-30 18:55 36.07889 -115.15340 2098 ft 8 kts 156°
2026-04-30 18:55 36.07807 -115.15388 2101 ft 8 kts 258°
2026-04-30 18:55 36.07803 -115.15463 2102 ft 10 kts 268°
2026-04-30 18:56 36.07803 -115.15625 2104 ft 13 kts 272°
2026-04-30 18:56 36.07804 -115.15736 2108 ft 13 kts 270°
2026-04-30 18:56 36.07805 -115.15845 2112 ft 13 kts 270°
2026-04-30 18:57 36.07804 -115.16055 2121 ft 11 kts 269°
2026-04-30 18:57 36.07764 -115.16127 2127 ft 11 kts 191°
2026-04-30 18:57 36.07724 -115.16130 2130 ft 4 kts 180°
2026-04-30 18:58 36.07664 -115.16129 2134 ft 6 kts 180°
2026-04-30 18:58 36.07595 -115.16129 2135 ft 14 kts 180°
2026-04-30 18:58 36.07508 -115.16174 2129 ft 15 kts 256°
2026-04-30 18:59 36.07503 -115.16416 2144 ft 0 kts 275°
2026-04-30 19:00 36.07505 -115.16483 2148 ft 6 kts 269°
2026-04-30 19:00 36.07504 -115.16540 2151 ft 8 kts 269°
2026-04-30 19:00 36.07561 -115.16677 2157 ft 9 kts 15°
2026-04-30 19:01 36.08111 -115.16358 2137 ft 117 kts 25°
2026-04-30 19:01 36.09021 -115.15808 2310 ft 165 kts 28°
2026-04-30 19:02 36.11352 -115.14400 3705 ft 191 kts 29°
2026-04-30 19:02 36.13182 -115.11963 4560 ft 236 kts 78°
2026-04-30 19:03 36.13410 -115.07592 5168 ft 258 kts 83°
2026-04-30 19:03 36.13744 -115.03163 5879 ft 262 kts 81°
2026-04-30 19:04 36.14156 -114.98670 6688 ft 265 kts 81°
2026-04-30 19:04 36.14602 -114.94065 7407 ft 272 kts 80°
2026-04-30 19:05 36.15072 -114.89412 8969 ft 280 kts 79°
2026-04-30 19:05 36.14612 -114.84532 10500 ft 296 kts 104°
2026-04-30 19:06 36.13418 -114.79594 12080 ft 305 kts 102°
2026-04-30 19:06 36.12772 -114.77081 12949 ft 308 kts 112°
2026-04-30 19:06 36.09566 -114.73248 13887 ft 352 kts 145°
2026-04-30 19:07 36.05215 -114.69855 14809 ft 381 kts 148°
2026-04-30 19:07 36.02954 -114.68105 15575 ft 384 kts 148°
2026-04-30 19:08 35.98363 -114.64520 17056 ft 396 kts 148°
2026-04-30 19:08 35.93682 -114.60825 18435 ft 407 kts 148°
2026-04-30 19:08 35.91277 -114.58915 19025 ft 412 kts 148°
2026-04-30 19:09 35.86406 -114.55056 20190 ft 422 kts 147°
2026-04-30 19:09 35.83916 -114.53084 20720 ft 427 kts 147°
2026-04-30 19:09 35.81435 -114.51120 21379 ft 429 kts 147°
2026-04-30 19:10 35.76335 -114.47087 22475 ft 439 kts 146°
2026-04-30 19:10 35.71167 -114.43009 23502 ft 448 kts 146°
2026-04-30 19:11 35.68568 -114.40863 23989 ft 450 kts 141°
2026-04-30 19:11 35.63774 -114.35887 24979 ft 453 kts 136°
2026-04-30 19:11 35.61428 -114.33287 25495 ft 454 kts 136°
2026-04-30 19:12 35.59067 -114.30689 26029 ft 455 kts 137°
2026-04-30 19:12 35.56677 -114.28103 26436 ft 459 kts 137°
2026-04-30 19:12 35.54255 -114.25521 26832 ft 462 kts 138°
2026-04-30 19:13 35.49348 -114.20350 27689 ft 468 kts 138°
2026-04-30 19:13 35.44369 -114.15127 28599 ft 471 kts 139°
2026-04-30 19:13 35.41927 -114.12566 28928 ft 463 kts 138°
2026-04-30 19:14 35.39442 -114.09960 28942 ft 465 kts 138°
2026-04-30 19:14 35.34495 -114.04775 28986 ft 469 kts 139°
2026-04-30 19:15 35.30502 -113.99400 29014 ft 462 kts 117°
2026-04-30 19:15 35.28610 -113.91962 29007 ft 458 kts 102°
2026-04-30 19:15 35.27894 -113.88214 29004 ft 458 kts 101°
2026-04-30 19:16 35.26402 -113.80625 28986 ft 459 kts 102°
2026-04-30 19:17 35.24050 -113.69273 28937 ft 459 kts 103°
2026-04-30 19:17 35.21779 -113.57892 28886 ft 460 kts 101°
2026-04-30 19:18 35.19634 -113.46417 28864 ft 462 kts 102°
2026-04-30 19:19 35.18177 -113.38762 28857 ft 463 kts 102°
2026-04-30 19:19 35.14752 -113.27845 28890 ft 464 kts 124°
2026-04-30 19:20 35.11101 -113.21482 28872 ft 464 kts 123°
2026-04-30 19:21 35.05722 -113.11689 28612 ft 463 kts 123°
2026-04-30 19:21 35.02124 -113.05176 28096 ft 462 kts 124°
2026-04-30 19:22 34.98831 -112.99242 27653 ft 455 kts 124°
2026-04-30 19:22 34.93547 -112.89723 26956 ft 449 kts 125°
2026-04-30 19:23 34.88331 -112.80346 26260 ft 445 kts 124°
2026-04-30 19:24 34.84865 -112.74128 25804 ft 442 kts 126°
2026-04-30 19:24 34.83139 -112.71036 25568 ft 440 kts 126°
2026-04-30 19:24 34.79702 -112.64888 25107 ft 437 kts 126°
2026-04-30 19:25 34.74598 -112.55771 24446 ft 432 kts 126°
2026-04-30 19:26 34.71215 -112.49770 24181 ft 428 kts 127°
2026-04-30 19:26 34.67028 -112.44687 23403 ft 424 kts 143°
2026-04-30 19:26 34.64728 -112.42486 22915 ft 418 kts 144°
2026-04-30 19:27 34.60219 -112.38183 22015 ft 409 kts 144°
2026-04-30 19:27 34.55795 -112.33895 21164 ft 404 kts 144°
2026-04-30 19:28 34.53616 -112.31770 20732 ft 402 kts 143°
2026-04-30 19:28 34.49272 -112.27532 19847 ft 399 kts 143°
2026-04-30 19:29 34.44950 -112.23461 18901 ft 386 kts 153°
2026-04-30 19:29 34.42518 -112.22355 18503 ft 375 kts 169°
2026-04-30 19:30 34.34951 -112.20462 17173 ft 362 kts 171°
2026-04-30 19:30 34.30082 -112.19239 16358 ft 354 kts 170°
2026-04-30 19:31 34.25299 -112.18012 15574 ft 347 kts 170°
2026-04-30 19:31 34.22976 -112.17413 15197 ft 344 kts 170°
2026-04-30 19:31 34.18345 -112.16216 14557 ft 336 kts 170°
2026-04-30 19:32 34.16067 -112.15628 14195 ft 335 kts 170°
2026-04-30 19:32 34.13792 -112.15042 13828 ft 333 kts 170°
2026-04-30 19:32 34.11524 -112.14457 13453 ft 331 kts 170°
2026-04-30 19:32 34.09274 -112.13883 13045 ft 329 kts 172°
2026-04-30 19:33 34.07019 -112.13729 12702 ft 323 kts 187°
2026-04-30 19:33 34.04808 -112.14007 12405 ft 317 kts 188°
2026-04-30 19:33 34.02618 -112.14306 12098 ft 314 kts 187°
2026-04-30 19:33 34.00501 -112.14583 11800 ft 310 kts 188°
2026-04-30 19:34 33.98353 -112.14845 11504 ft 307 kts 187°
2026-04-30 19:34 33.96257 -112.15087 11224 ft 306 kts 187°
2026-04-30 19:34 33.92027 -112.15564 10645 ft 304 kts 186°
2026-04-30 19:35 33.89933 -112.15842 10354 ft 302 kts 189°
2026-04-30 19:35 33.87870 -112.16267 10071 ft 300 kts 191°
2026-04-30 19:35 33.85815 -112.16728 9788 ft 299 kts 191°
2026-04-30 19:35 33.83776 -112.17183 9471 ft 297 kts 190°
2026-04-30 19:36 33.81742 -112.17627 9187 ft 295 kts 190°
2026-04-30 19:36 33.79726 -112.18058 8893 ft 292 kts 190°
2026-04-30 19:36 33.75771 -112.18896 8329 ft 288 kts 190°
2026-04-30 19:37 33.73804 -112.19311 8122 ft 286 kts 190°
2026-04-30 19:37 33.71857 -112.19722 7857 ft 283 kts 190°
2026-04-30 19:37 33.69915 -112.20132 7584 ft 281 kts 190°
2026-04-30 19:37 33.68000 -112.20535 7319 ft 278 kts 190°
2026-04-30 19:38 33.66102 -112.20936 7054 ft 276 kts 190°
2026-04-30 19:38 33.64211 -112.21335 6787 ft 274 kts 189°
2026-04-30 19:38 33.62339 -112.21730 6492 ft 272 kts 189°
2026-04-30 19:38 33.61109 -112.21989 6323 ft 271 kts 189°
2026-04-30 19:39 33.59261 -112.22379 6063 ft 269 kts 189°
2026-04-30 19:39 33.57424 -112.22770 5812 ft 266 kts 189°
2026-04-30 19:39 33.55024 -112.23288 5505 ft 262 kts 190°
2026-04-30 19:39 33.53827 -112.23546 5351 ft 260 kts 190°
2026-04-30 19:40 33.52058 -112.23927 5117 ft 257 kts 190°
2026-04-30 19:40 33.50288 -112.24308 4805 ft 257 kts 190°
2026-04-30 19:40 33.47992 -112.24784 4376 ft 248 kts 186°
2026-04-30 19:40 33.46844 -112.24702 4146 ft 244 kts 165°
2026-04-30 19:41 33.45399 -112.23718 3792 ft 239 kts 139°
2026-04-30 19:41 33.44479 -112.22104 3483 ft 235 kts 107°
2026-04-30 19:41 33.44237 -112.20289 3546 ft 212 kts 98°
2026-04-30 19:41 33.44114 -112.18621 3559 ft 190 kts 93°
2026-04-30 19:42 33.44087 -112.17086 3397 ft 179 kts 92°
2026-04-30 19:42 33.44083 -112.15636 3221 ft 167 kts 91°
2026-04-30 19:42 33.44085 -112.14304 2995 ft 155 kts 91°
2026-04-30 19:42 33.44082 -112.13057 2796 ft 147 kts 90°
2026-04-30 19:43 33.44082 -112.11850 2640 ft 145 kts 91°
2026-04-30 19:43 33.44082 -112.10623 2458 ft 148 kts 91°
2026-04-30 19:43 33.44078 -112.09393 2278 ft 149 kts 92°
2026-04-30 19:44 33.44025 -112.06940 1874 ft 148 kts 93°
2026-04-30 19:44 33.44059 -112.05724 1711 ft 142 kts 86°
2026-04-30 19:44 33.44103 -112.04554 1486 ft 141 kts 90°
2026-04-30 19:44 33.44073 -112.03380 1267 ft 139 kts 91°
2026-04-30 19:45 33.44086 -112.02251 1134 ft 130 kts 89°
2026-04-30 19:45 33.44082 -112.01271 1132 ft 106 kts 90°
2026-04-30 19:45 33.44085 -112.00689 1128 ft 40 kts 90°
2026-04-30 19:45 33.44060 -112.00498 1120 ft 0 kts 126°
2026-04-30 19:46 33.44059 -112.00497 1120 ft 0 kts 126°
2026-04-30 19:46 33.44053 -112.00489 1120 ft 3 kts 132°
2026-04-30 19:46 33.44051 -112.00485 1125 ft 0 kts 136°
2026-04-30 19:47 33.44050 -112.00484 1125 ft 1 kts 135°
2026-04-30 19:47 33.44036 -112.00476 1123 ft 6 kts 157°
2026-04-30 19:47 33.43949 -112.00466 1121 ft 12 kts 181°
2026-04-30 19:47 33.43895 -112.00467 1119 ft 7 kts 181°
2026-04-30 19:48 33.43844 -112.00469 1118 ft 8 kts 181°
2026-04-30 19:48 33.43787 -112.00470 1120 ft 8 kts 181°
2026-04-30 19:48 33.43726 -112.00472 1118 ft 9 kts 181°
2026-04-30 19:48 33.43660 -112.00469 1121 ft 9 kts 178°
2026-04-30 19:49 33.43592 -112.00468 1118 ft 11 kts 179°
2026-04-30 19:49 33.43385 -112.00468 1120 ft 18 kts 180°
2026-04-30 19:49 33.43292 -112.00446 1123 ft 11 kts 128°
2026-04-30 19:50 33.43284 -112.00342 1120 ft 15 kts 90°
2026-04-30 19:50 33.43284 -112.00206 1123 ft 18 kts 90°
2026-04-30 19:50 33.43284 -112.00043 1121 ft 21 kts 90°
2026-04-30 19:50 33.43283 -111.99896 1119 ft 21 kts 90°
2026-04-30 19:51 33.43298 -111.99831 1116 ft 6 kts 25°
2026-04-30 19:51 33.43302 -111.99830 1124 ft 0 kts 11°
2026-04-30 19:51 33.43317 -111.99834 1116 ft 5 kts 341°
2026-04-30 19:51 33.43341 -111.99849 1122 ft 3 kts 329°
2026-04-30 19:52 33.43361 -111.99864 1117 ft 1 kts 327°
2026-04-30 19:52 33.43367 -111.99869 1118 ft 1 kts 326°
2026-04-30 19:52 33.43371 -111.99873 1119 ft 0 kts 327°
2026-04-30 19:52 33.43374 -111.99875 1120 ft 0 kts 327°